Previsão horária em Ceglowko

Hoje, 25 Julho, Domingo

Tempo Temperatura Precipitação Vento Pressão Humidade
00:00 +19°C° 0 mm 3 m/s 754 mmHg 66%
01:00 +19°C° 0 mm 3 m/s 753 mmHg 68%
02:00 +19°C° 0 mm 3 m/s 753 mmHg 68%
03:00 +19°C° 0 mm 3 m/s 753 mmHg 68%
04:00 +20°C° 0 mm 3 m/s 752 mmHg 69%
05:00 +20°C° 0 mm 3 m/s 752 mmHg 67%
06:00 +21°C° 0 mm 3 m/s 752 mmHg 65%
07:00 +22°C° 0 mm 3 m/s 752 mmHg 65%
08:00 +24°C° 0 mm 3 m/s 752 mmHg 62%
09:00 +25°C° 0 mm 3 m/s 752 mmHg 59%
10:00 +26°C° 0 mm 4 m/s 752 mmHg 56%
11:00 +27°C° 0 mm 4 m/s 752 mmHg 54%
12:00 +27°C° 0 mm 5 m/s 753 mmHg 53%
13:00 +28°C° 0 mm 6 m/s 753 mmHg 51%
14:00 +28°C° 0 mm 6 m/s 753 mmHg 50%
15:00 +28°C° 0 mm 6 m/s 753 mmHg 48%
16:00 +28°C° 0 mm 6 m/s 753 mmHg 46%
17:00 +27°C° 0 mm 5 m/s 752 mmHg 51%
18:00 +26°C° 0 mm 5 m/s 752 mmHg 55%
19:00 +23°C° 0 mm 4 m/s 752 mmHg 60%
20:00 +22°C° 0 mm 4 m/s 752 mmHg 64%
21:00 +21°C° 0 mm 3 m/s 752 mmHg 68%
22:00 +20°C° 0 mm 3 m/s 753 mmHg 72%
23:00 +19°C° 0 mm 2 m/s 753 mmHg 75%

Amanhã, 26 Julho, Segunda-feira

Tempo Temperatura Precipitação Vento Pressão Humidade
00:00 +19°C° 0 mm 2 m/s 753 mmHg 78%
01:00 +18°C° 0 mm 2 m/s 753 mmHg 82%
02:00 +18°C° 0 mm 2 m/s 753 mmHg 84%
03:00 +17°C° 0 mm 2 m/s 752 mmHg 86%
04:00 +18°C° 0 mm 1 m/s 752 mmHg 88%
05:00 +20°C° 0 mm 1 m/s 752 mmHg 82%
06:00 +21°C° 0 mm 1 m/s 753 mmHg 77%
07:00 +22°C° 0 mm 1 m/s 753 mmHg 71%
08:00 +24°C° 0 mm 1 m/s 753 mmHg 64%
09:00 +26°C° 0 mm 1 m/s 753 mmHg 57%
10:00 +28°C° 0 mm 1 m/s 753 mmHg 50%
11:00 +29°C° 0 mm 1 m/s 753 mmHg 46%
12:00 +30°C° 0 mm 1 m/s 753 mmHg 42%
13:00 +31°C° 0 mm 1 m/s 752 mmHg 38%
14:00 +31°C° 0 mm 1 m/s 752 mmHg 38%
15:00 +31°C° 0 mm 1 m/s 752 mmHg 37%
16:00 +32°C° 0 mm 1 m/s 752 mmHg 37%
17:00 +30°C° 0 mm 1 m/s 752 mmHg 42%
18:00 +29°C° 0 mm 2 m/s 752 mmHg 47%
19:00 +28°C° 0 mm 2 m/s 752 mmHg 52%
20:00 +26°C° 0 mm 2 m/s 752 mmHg 57%
21:00 +25°C° 0 mm 2 m/s 752 mmHg 61%
22:00 +22°C° 0 mm 3 m/s 752 mmHg 66%
23:00 +21°C° 0 mm 3 m/s 753 mmHg 72%

Depois de amanhã, 27 Julho, Terça-feira

Tempo Temperatura Precipitação Vento Pressão Humidade
00:00 +21°C° 0 mm 3 m/s 753 mmHg 78%
01:00 +20°C° 0 mm 4 m/s 753 mmHg 84%
02:00 +19°C° 0.1 mm 3 m/s 753 mmHg 85%
03:00 +19°C° 0.1 mm 3 m/s 753 mmHg 86%
04:00 +19°C° 0.1 mm 3 m/s 753 mmHg 87%
05:00 +20°C° 0.1 mm 3 m/s 754 mmHg 86%
06:00 +20°C° 0.1 mm 3 m/s 754 mmHg 85%
07:00 +20°C° 0.1 mm 3 m/s 754 mmHg 83%
08:00 +22°C° 0 mm 3 m/s 754 mmHg 76%
09:00 +24°C° 0 mm 3 m/s 754 mmHg 68%
10:00 +26°C° 0 mm 3 m/s 754 mmHg 60%
11:00 +27°C° 0 mm 3 m/s 754 mmHg 53%
12:00 +29°C° 0 mm 3 m/s 754 mmHg 46%
13:00 +32°C° 0 mm 4 m/s 754 mmHg 39%
14:00 +32°C° 0 mm 4 m/s 754 mmHg 39%
15:00 +32°C° 0 mm 4 m/s 754 mmHg 38%
16:00 +32°C° 0 mm 4 m/s 753 mmHg 38%
17:00 +29°C° 0 mm 3 m/s 753 mmHg 43%
18:00 +28°C° 0 mm 3 m/s 753 mmHg 48%
19:00 +27°C° 0 mm 2 m/s 753 mmHg 53%
20:00 +25°C° 0 mm 2 m/s 754 mmHg 57%
21:00 +24°C° 0 mm 2 m/s 754 mmHg 61%
22:00 +23°C° 0 mm 2 m/s 754 mmHg 65%
23:00 +21°C° 0 mm 2 m/s 754 mmHg 68%

28 Julho, Quarta-feira

Tempo Temperatura Precipitação Vento Pressão Humidade
00:00 +22°C° 0 mm 1 m/s 754 mmHg 70%
01:00 +21°C° 0 mm 1 m/s 754 mmHg 73%
02:00 +20°C° 0 mm 2 m/s 754 mmHg 75%
03:00 +19°C° 0 mm 2 m/s 754 mmHg 78%
04:00 +19°C° 0 mm 2 m/s 754 mmHg 80%
05:00 +20°C° 0 mm 3 m/s 754 mmHg 75%
06:00 +22°C° 0 mm 3 m/s 754 mmHg 69%
07:00 +23°C° 0 mm 4 m/s 754 mmHg 64%
08:00 +25°C° 0 mm 4 m/s 754 mmHg 60%
09:00 +25°C° 0 mm 3 m/s 754 mmHg 56%
10:00 +26°C° 0 mm 3 m/s 754 mmHg 52%
11:00 +27°C° 0 mm 4 m/s 754 mmHg 50%
12:00 +27°C° 0 mm 4 m/s 754 mmHg 48%
13:00 +28°C° 0 mm 5 m/s 754 mmHg 46%
14:00 +26°C° 0.1 mm 4 m/s 754 mmHg 55%
15:00 +23°C° 0.1 mm 4 m/s 755 mmHg 65%
16:00 +22°C° 0.1 mm 3 m/s 755 mmHg 74%
17:00 +21°C° 0.1 mm 3 m/s 755 mmHg 77%
18:00 +21°C° 0.1 mm 3 m/s 755 mmHg 79%
19:00 +20°C° 0.1 mm 3 m/s 755 mmHg 81%
20:00 +19°C° 0 mm 3 m/s 755 mmHg 84%
21:00 +19°C° 0 mm 3 m/s 755 mmHg 88%
22:00 +18°C° 0 mm 3 m/s 755 mmHg 91%
23:00 +17°C° 0 mm 3 m/s 755 mmHg 92%

29 Julho, Quinta-feira

Tempo Temperatura Precipitação Vento Pressão Humidade
00:00 +17°C° 0 mm 2 m/s 756 mmHg 93%
01:00 +17°C° 0 mm 2 m/s 756 mmHg 94%
02:00 +16°C° 0 mm 2 m/s 756 mmHg 94%
03:00 +16°C° 0 mm 2 m/s 756 mmHg 95%
04:00 +16°C° 0 mm 2 m/s 756 mmHg 95%
05:00 +18°C° 0 mm 2 m/s 756 mmHg 88%
06:00 +19°C° 0 mm 2 m/s 756 mmHg 80%
07:00 +21°C° 0 mm 3 m/s 756 mmHg 73%
08:00 +24°C° 0 mm 3 m/s 756 mmHg 65%
09:00 +25°C° 0 mm 3 m/s 756 mmHg 57%
10:00 +27°C° 0 mm 3 m/s 756 mmHg 49%
11:00 +28°C° 0 mm 3 m/s 755 mmHg 45%
12:00 +29°C° 0 mm 3 m/s 755 mmHg 41%
13:00 +30°C° 0 mm 4 m/s 754 mmHg 37%
14:00 +32°C° 0 mm 4 m/s 754 mmHg 36%
15:00 +32°C° 0 mm 4 m/s 754 mmHg 35%
16:00 +32°C° 0 mm 4 m/s 753 mmHg 33%
17:00 +30°C° 0 mm 3 m/s 753 mmHg 38%
18:00 +28°C° 0 mm 3 m/s 753 mmHg 44%
19:00 +27°C° 0 mm 2 m/s 753 mmHg 49%
20:00 +26°C° 0 mm 2 m/s 753 mmHg 51%
21:00 +25°C° 0 mm 2 m/s 753 mmHg 54%
22:00 +24°C° 0 mm 1 m/s 753 mmHg 57%
23:00 +24°C° 0 mm 2 m/s 752 mmHg 59%

30 Julho, Sexta-feira

Tempo Temperatura Precipitação Vento Pressão Humidade
00:00 +23°C° 0 mm 2 m/s 752 mmHg 62%
01:00 +21°C° 0 mm 2 m/s 752 mmHg 65%
02:00 +21°C° 0.3 mm 2 m/s 752 mmHg 70%
03:00 +20°C° 0.3 mm 2 m/s 752 mmHg 75%
04:00 +20°C° 0.3 mm 2 m/s 751 mmHg 80%
05:00 +20°C° 0.9 mm 2 m/s 751 mmHg 80%
06:00 +21°C° 0.9 mm 2 m/s 751 mmHg 80%
07:00 +21°C° 0.9 mm 2 m/s 751 mmHg 81%
08:00 +24°C° 0 mm 3 m/s 751 mmHg 74%
09:00 +26°C° 0 mm 4 m/s 751 mmHg 67%
10:00 +28°C° 0 mm 4 m/s 750 mmHg 60%
11:00 +27°C° 0.4 mm 5 m/s 750 mmHg 62%
12:00 +27°C° 0.4 mm 6 m/s 750 mmHg 65%
13:00 +27°C° 0.4 mm 6 m/s 750 mmHg 68%
14:00 +27°C° 0.2 mm 6 m/s 750 mmHg 64%
15:00 +27°C° 0.2 mm 5 m/s 751 mmHg 61%
16:00 +27°C° 0.2 mm 5 m/s 751 mmHg 57%
17:00 +26°C° 0 mm 4 m/s 751 mmHg 59%
18:00 +25°C° 0 mm 3 m/s 751 mmHg 61%
19:00 +24°C° 0 mm 2 m/s 751 mmHg 63%
20:00 +23°C° 0 mm 2 m/s 751 mmHg 65%
21:00 +21°C° 0 mm 2 m/s 751 mmHg 67%
22:00 +20°C° 0 mm 2 m/s 751 mmHg 69%
23:00 +21°C° 0 mm 1 m/s 751 mmHg 71%
Mostrar mais

Necessitamos do seu Consentimento

A Meteoprog e os seus Fornecedores de Serviços podem armazenar e aceder a dados pessoais como cookies, identificadores do dispositivo ou outras tecnologias semelhantes existentes no seu dispositivo e processar estes dados para personalizar conteúdos e anúncios, assim como funcionalidades nas redes sociais e análise de tráfego.

  • Armazenar e/ou aceder a informações no seu dispositivo

    Os cookies, identificadores do dispositivo ou outras informações podem ser armazenados ou acedidos no seu dispositivo, para os fins acima indicados.

  • Anúncios e conteúdos personalizados, medição de anúncios e conteúdos, dados sobre o público-alvo e desenvolvimento de produtos

    Os anúncios e os conteúdos podem ser personalizados com base num perfil. Podem ser adicionados dados adicionais para uma maior personalização dos anúncios e dos conteúdos. A eficácia dos anúncios e dos conteúdos pode ser medida. Podem ser obtidas informações sobre o público que visualizou os anúncios e os conteúdos. Estes dados podem ser usados para desenvolver ou melhorar sistemas, softwares ou a experiência do utilizador.

Ao clicar em "Eu concordo”, permitirá o uso de cookies, identificadores do dispositivo e web beacons mencionados ou outras tecnologias semelhantes. As configurações do navegador do seu dispositivo podem ser alteradas.

Para certos fins, podem ser invocados interesses legítimos ao invés de consentimento. Pode ler mais informação sobre este assunto na nossa Política de Privacidade e Cookies.